Regional Weather Roundup
Issued by NWS Albany, NY

Current Version | Previous Version | Graphics & Text | Print | Product List | Glossary Off
Versions: 1 2 3 4 5 6 7 8 9 10 11 12 13 14 15 16 17 18 19 20 21 22 23 24 25 26 27 28 29 30 31 32 33 34 35 36 37 38 39 40 41 42 43 44 45 46 47

000
ASUS41 KALY 060810
RWRALY

NEW YORK STATE HOURLY WEATHER ROUNDUP
NATIONAL WEATHER SERVICE ALBANY NY
400 AM EDT WED MAY 06 2015

NOTE: "FAIR" INDICATES FEW OR NO CLOUDS BELOW 12,000 FEET WITH NO
SIGNIFICANT WEATHER AND/OR NO OBSTRUCTIONS TO VISIBILITY.

NYZ032-033-038>043-046>054-057>066-NYZ062>081-060900-
EAST


CITY           SKY/WX    TMP DP  RH WIND       PRES   REMARKS
ALBANY         CLOUDY    57  38  48 N7        30.27R
GLENS FALLS    PTCLDY    45  40  82 CALM      30.27S
POUGHKEEPSIE   CLOUDY    63  41  44 CALM      30.22S
NEWBURGH       CLOUDY    64  43  45 E12       30.24R
MONTGOMERY     CLOUDY    60  53  77 CALM      30.23R
WHITE PLAINS   CLOUDY    66  35  31 N8        30.20R
ISLIP          MOCLDY    60  51  72 N6        30.18R
NEW YORK CITY  CLOUDY    68  39  34 N6        30.19S
CENTRAL PARK   CLOUDY    70  36  28 VRB7      30.22S
$$

NYZ005>009-017-018-044>046-055-056-060900-
CENTRAL


CITY           SKY/WX    TMP DP  RH WIND       PRES   REMARKS
FULTON         MOCLDY    44  37  76 CALM      30.29S
SYRACUSE       CLOUDY    51  44  77 CALM      30.28S
ROME           MOCLDY    46  41  82 CALM      30.30S
ELMIRA         LGT RAIN  53  52  96 SW5       30.28S
BINGHAMTON     LGT RAIN  52  49  89 NE3       30.27S
MONTICELLO     CLOUDY    54  45  71 NE6       30.27S
$$

NYZ026>034-041>043-060900-
NORTH


CITY           SKY/WX    TMP DP  RH WIND       PRES   REMARKS
WATERTOWN      CLEAR     42  38  85 CALM      30.29R
FORT DRUM      NOT AVBL
MASSENA        CLEAR     39  37  92 CALM      30.30R FOG
SARANAC LAKE   CLEAR     29  28  96 CALM      30.28S
PLATTSBURGH    CLEAR     48  36  63 N3        30.27R
$$

NYZ001>004-010>016-019>021-060900-
WEST


CITY           SKY/WX    TMP DP  RH WIND       PRES   REMARKS
NIAGARA FALLS  CLOUDY    53  47  79 NE3       30.26F
BUFFALO        MOCLDY    55  49  80 NE6       30.26F
DUNKIRK        CLOUDY    51  51 100 NE5       30.25S FOG
JAMESTOWN      CLOUDY    54  52  94 E3        30.25F
WELLSVILLE     CLOUDY    54  52  93 E3        30.29R FOG
ROCHESTER      MOCLDY    56  41  57 N3        30.28S
PENN YAN       CLOUDY    54  51  90 SW3       30.28S
$$

             KEY
       WCI = WIND CHILL INDEX
       VSB = VISIBILITY
       HX  = HEAT INDEX
$$


USA.gov is the U.S. government's official web portal to all federal, state and local government web resources and services.